カタログに戻る

KOMPSAT-7

運用中科学SSO
NORAD 66820·PAYLOAD·🇪🇺 EU

打ち上げ Dec 1, 2025 から Guiana Space Centre

Loading…

次のパス (今後24時間)

TLE

最新Source: Space-Track

元期: Sep 14, 2026, 14:37 UTC

1 66820U 25279A   26257.60935375  .00000794  00000-0  66450-4 0  9992
2 66820  97.7370 205.5901 0013736  71.8867 288.3851 15.01236647 43036

AllMySatでKOMPSAT-7をリアルタイム追跡

Download on the App Store